RH
82 84 82 80 81 81 80 78 77 76 77 80 82 82 82 82 82 82 82 82 84 84 83 83 82 86 88 70 39 50 54 60 68 44 32 42 55 60 71 64 58 66 58 50 44 60 62
88 88 83 80 81 81 80 78 76 78 80 82 82 82 82 82 83 82 82 83 84 84 83 81 83 89 80 27 24 53 61 64 54 32 28 43 51 51 55 54 55 46 47 43 43 66 70
89 87 81 83 81 81 80 79 80 81 82 83 81 83 83 82 82 82 82 84 85 84 83 80 85 78 73 20 40 47 60 55 37 26 29 42 47 53 57 60 42 40 43 37 76 80 74
89 84 82 81 81 82 82 82 82 83 83 83 81 80 82 82 82 83 86 87 87 84 82 80 80 88 76 40 52 48 42 43 32 30 26 27 39 47 52 45 31 32 34 35 79 75 71
79 83 82 81 81 83 82 81 81 80 81 84 83 83 83 84 85 88 89 88 85 77 78 83 94 94 67 52 45 48 48 39 35 31 28 17 39 51 32 40 43 40 46 34 70 68 72
81 82 81 81 81 81 81 80 78 79 81 85 87 88 88 88 89 86 86 86 81 85 80 72 66 79 40 30 21 40 50 29 35 29 27 28 36 39 49 50 62 49 42 39 36 74 76
82 82 82 80 80 80 78 77 78 79 84 86 87 89 89 87 89 86 89 72 37 45 83 44 39 36 29 25 14 30 43 30 27 31 33 29 41 49 44 42 38 35 35 38 30 41 76
82 83 82 81 79 78 78 84 86 86 86 87 89 90 89 86 88 89 92 42 32 35 40 40 44 42 33 33 19 14 34 33 33 35 39 44 53 40 37 39 34 36 39 38 31 29 50
83 84 81 84 85 80 88 89 90 90 90 90 90 90 86 86 91 84 53 34 36 47 44 24 33 31 24 27 20 15 29 31 32 41 41 46 40 32 34 36 35 47 47 39 33 32 84
85 87 80 82 81 83 89 89 90 90 90 90 90 88 88 90 54 66 38 44 48 40 30 19 24 18 14 13 14 14 16 24 38 40 38 39 35 32 37 38 37 64 35 31 30 29 36
87 87 81 83 84 85 83 88 90 90 90 90 90 89 89 88 87 51 33 54 51 20 32 20 18 12 13 12 15 14 14 19 32 41 43 44 36 39 39 35 34 37 32 32 31 31 69
86 86 81 81 84 82 82 87 89 90 91 91 88 92 89 91 94 64 56 50 23 28 39 16 12 12 12 12 15 14 14 13 19 18 25 33 20 30 31 26 30 26 24 27 30 32 33
85 85 81 85 85 83 82 87 90 91 91 89 90 94 92 70 30 52 48 28 34 40 26 24 15 12 13 14 16 17 18 25 25 28 29 20 18 18 16 22 24 25 32 41 39 37 34
86 82 83 84 85 81 87 90 91 91 91 91 93 96 93 71 69 62 33 35 45 31 33 26 23 24 20 17 17 25 25 32 27 23 27 25 28 22 17 22 26 29 31 37 39 44 36
87 81 80 85 82 87 91 91 91 91 90 92 93 80 62 53 59 52 32 52 49 43 32 30 30 31 33 28 18 27 34 35 31 34 29 29 31 21 18 18 22 28 36 37 40 54 35
86 82 81 80 88 90 91 91 91 91 92 94 90 70 45 39 49 39 36 50 39 33 33 33 38 36 39 36 28 32 34 29 29 29 35 37 31 28 20 19 20 23 26 33 38 42 43
85 84 87 86 90 91 91 91 91 92 93 92 75 41 34 42 40 38 50 43 32 32 30 37 41 37 38 38 35 38 42 32 37 29 31 51 33 27 28 34 35 30 33 35 39 44 43
86 86 83 86 91 91 91 90 90 93 94 84 67 48 34 36 44 64 58 43 49 38 36 35 38 42 42 44 46 40 47 43 38 32 34 44 42 46 42 30 27 31 39 39 38 36 49
86 85 84 84 90 90 90 90 90 92 94 91 75 74 41 38 51 66 56 45 41 44 49 46 45 42 44 56 53 48 42 34 36 42 41 36 45 45 42 33 33 36 36 42 41 47 48
84 84 82 87 90 90 90 89 90 92 93 89 61 58 52 56 70 66 70 60 53 39 46 47 55 52 53 62 64 63 52 38 37 50 51 35 46 43 39 43 44 49 43 40 43 48 50
80 84 83 86 89 89 89 89 89 91 91 70 67 75 72 74 66 68 69 65 60 65 49 51 58 60 64 73 73 72 62 52 38 53 54 43 64 60 58 48 46 50 47 44 49 47 45
80 85 84 86 88 89 89 89 87 90 91 82 78 66 73 84 76 68 76 73 66 62 58 60 65 61 63 78 78 79 74 73 76 53 58 70 86 73 71 52 50 50 45 43 42 42 45
80 85 87 87 86 89 90 89 88 89 80 90 96 86 61 78 78 79 83 77 63 65 54 56 59 66 68 64 62 71 69 69 73 73 66 77 82 81 75 69 54 65 55 51 71 79 81
81 84 87 86 85 89 90 89 87 88 90 95 96 78 70 78 72 72 64 64 65 68 66 57 58 69 60 57 63 67 70 71 68 79 72 75 84 89 86 71 49 41 49 41 68 72 75
81 84 87 87 85 86 90 89 87 87 91 94 98 86 75 85 72 64 63 66 72 74 74 64 62 66 72 73 73 81 86 80 76 79 85 76 86 93 89 85 62 55 70 71 74 73 74
79 84 87 87 85 84 86 88 87 87 90 94 97 94 75 84 76 60 68 73 80 84 76 70 68 72 73 90 87 89 91 90 87 70 81 86 85 90 91 82 74 60 77 68 78 82 83
78 83 87 87 86 84 82 83 82 86 89 93 94 93 77 84 77 68 70 70 76 85 86 88 78 76 78 92 98 96 98 94 93 81 86 95 95 90 93 91 77 86 76 74 78 81 88
80 84 87 88 87 86 84 85 83 84 88 86 92 94 85 91 84 67 58 71 82 85 86 79 79 75 89 94 97 99 97 99 97 89 93 88 95 99 95 95 91 78 72 78 86 93 86
80 84 87 88 88 86 85 86 87 87 88 79 84 84 94 92 74 82 64 55 51 56 78 88 75 85 85 98 99 98 97 96 98 92 84 93 91 96 92 91 87 84 78 78 86 92 93
Wind_Speed
13 14 16 15 15 16 16 16 16 17 17 18 18 18 19 19 19 19 18 17 17 16 14 12 7 4 1 1 9 2 18 14 8 6 8 7 8 5 5 4 4 8 5 6 5 8 8
12 13 15 15 15 15 16 16 17 17 18 18 19 19 19 19 19 19 19 19 18 16 13 9 6 3 1 2 1 10 11 10 7 6 5 6 8 5 3 2 2 1 5 10 4 10 8
13 15 16 16 16 17 17 18 18 19 19 19 20 20 20 20 20 20 20 20 20 17 12 7 7 4 1 10 2 8 9 4 7 6 6 2 3 4 1 2 4 5 3 4 6 5 5
14 14 16 16 17 17 18 19 20 21 21 22 22 22 21 21 20 20 21 22 22 17 9 7 5 2 8 2 5 9 6 5 6 3 4 4 4 2 1 4 6 4 4 5 2 1 6
15 15 16 17 17 18 19 20 20 21 21 21 22 22 22 22 21 20 20 23 18 2 9 10 5 2 7 5 5 7 4 8 7 2 3 4 4 1 2 2 5 6 2 3 3 3 5
15 15 16 18 18 19 19 20 21 21 21 21 21 21 22 22 20 19 21 14 4 10 6 4 2 2 5 5 5 8 5 14 6 6 2 4 3 3 3 4 5 3 4 2 2 5 1
15 16 17 18 19 19 20 20 19 20 21 21 21 21 21 22 19 18 10 3 3 3 2 9 5 4 5 8 5 4 8 6 6 5 5 4 5 7 7 7 4 3 4 0 3 3 2
18 18 20 20 20 20 21 19 20 21 22 22 22 22 22 22 20 16 4 3 5 3 7 9 7 6 6 3 2 5 14 7 6 6 5 5 6 8 6 5 5 2 3 3 5 3 5
18 19 20 19 19 21 19 20 19 19 20 21 22 22 23 22 21 3 2 4 4 3 2 6 6 5 5 7 5 8 10 5 8 6 5 8 5 7 5 4 4 2 4 3 5 2 3
18 18 20 20 20 20 20 20 21 21 21 22 22 22 20 24 1 3 3 2 6 6 5 6 4 6 5 3 2 4 8 7 3 8 9 5 3 7 4 3 6 1 7 6 3 2 1
18 19 21 20 20 20 21 21 21 22 23 22 22 20 18 9 2 0 5 7 5 2 1 2 2 2 2 6 4 3 1 5 7 6 6 5 6 4 4 6 7 8 6 6 3 2 3
19 20 22 21 20 21 22 22 22 23 23 23 23 18 13 1 1 7 7 7 3 4 1 2 3 4 6 3 1 3 4 7 3 5 3 5 2 5 8 7 10 6 6 8 5 4 3
19 20 21 19 19 20 22 22 22 24 25 25 23 17 5 2 2 5 6 4 4 3 5 7 4 4 5 2 4 5 5 7 4 6 3 3 2 5 3 3 3 6 7 3 4 3 5
20 21 20 20 19 21 22 22 23 24 25 26 23 12 8 4 5 5 3 7 7 5 4 4 5 5 6 6 8 7 4 5 7 5 4 5 1 6 8 3 5 5 8 7 6 6 4
19 22 22 20 19 20 22 23 24 24 25 25 17 2 1 4 3 3 5 7 1 4 6 6 2 7 7 6 6 7 5 3 4 4 6 5 1 5 4 5 2 4 5 3 9 2 4
18 20 21 21 21 21 22 24 24 24 23 20 3 3 4 9 4 4 6 4 3 4 6 3 5 3 4 7 5 6 6 5 6 7 2 2 6 3 6 5 7 8 1 4 4 4 2
18 19 19 20 20 20 22 24 24 24 23 13 4 5 4 6 3 7 5 3 4 9 5 7 4 5 4 3 5 4 7 2 8 6 8 2 4 4 6 9 6 7 6 6 6 3 7
16 18 20 19 20 20 22 23 23 21 21 6 3 4 5 4 7 2 3 5 6 10 10 7 5 5 5 6 7 5 5 4 14 3 5 4 6 6 2 5 4 5 3 3 5 4 2
15 16 18 19 20 20 22 23 23 20 10 2 3 1 5 4 4 4 4 4 6 10 8 9 8 7 6 5 7 5 4 6 14 6 3 1 4 5 4 6 6 7 5 4 4 3 1
16 17 18 18 19 20 22 22 23 21 6 5 4 5 6 7 2 4 3 5 5 8 6 5 7 4 6 9 9 4 4 6 9 8 13 7 4 4 7 5 3 4 4 4 5 4 4
15 16 17 17 18 19 21 23 22 19 7 4 5 1 3 4 7 6 5 4 5 7 6 9 6 9 4 6 5 5 5 6 7 13 7 6 5 4 5 5 4 3 3 1 1 3 4
13 15 16 17 17 17 19 21 23 20 4 7 4 4 4 2 3 5 7 6 5 4 6 5 6 4 8 6 2 2 2 4 1 7 5 5 3 3 3 3 2 4 6 6 4 3 3
10 12 14 15 15 16 17 19 21 22 6 4 1 2 6 4 3 4 2 2 2 2 6 5 2 3 7 3 3 1 1 3 2 3 3 4 5 3 3 2 2 3 1 3 2 3 2
9 10 12 14 14 14 15 17 18 19 10 3 1 3 6 2 3 2 2 2 4 3 4 3 4 4 3 4 5 5 7 7 8 6 2 4 4 3 3 2 4 4 3 5 4 1 1
9 8 10 12 12 12 13 14 15 16 14 5 0 3 4 2 2 1 3 3 2 4 3 3 4 1 1 6 5 5 5 4 5 6 6 3 5 4 4 2 3 1 2 2 4 6 2
7 8 8 9 10 10 11 12 14 15 12 4 2 1 4 6 4 1 3 1 3 2 3 2 1 3 6 4 4 3 2 2 1 3 5 5 6 6 2 3 4 5 3 3 1 5 4
7 7 7 8 9 9 10 11 12 13 13 4 1 2 4 4 3 5 3 4 4 3 3 3 3 4 4 3 4 3 2 1 2 2 1 4 4 5 3 2 5 2 4 2 4 2 1
5 6 6 7 7 8 8 9 10 12 13 3 1 3 3 3 4 5 5 5 2 2 4 3 4 4 4 5 4 3 3 2 2 3 1 4 4 3 3 3 7 1 1 4 2 1 3
6 5 4 6 6 7 7 8 8 10 11 2 2 3 2 4 5 2 4 4 9 10 7 1 5 4 5 6 1 3 2 3 5 2 2 2 6 4 7 5 2 1 2 1 2 3 3
Wind_Direction
359 355 352 351 348 347 345 344 342 340 339 339 339 338 336 334 330 328 326 324 321 319 317 314 304 291 250 2 253 101 150 151 132 125 147 141 148 140 169 199 186 224 261 257 235 160 154
345 351 354 349 346 346 344 342 340 339 337 338 337 335 332 330 328 325 323 320 317 313 307 304 278 181 223 255 209 142 133 123 143 127 158 139 174 168 157 256 242 301 248 269 289 158 155
351 355 354 349 348 346 344 343 341 338 336 337 335 332 329 328 326 323 321 317 312 303 294 274 263 191 263 227 344 136 115 131 148 144 140 191 143 166 48 272 304 274 320 341 26 117 141
356 356 352 347 346 344 342 341 340 337 335 334 334 329 325 324 324 323 320 316 308 292 259 218 186 235 246 267 138 135 115 78 89 70 124 164 96 95 211 302 344 13 41 9 52 125 161
356 352 348 347 344 343 341 340 337 334 333 329 328 325 322 321 322 324 323 322 314 95 159 166 109 253 265 106 167 181 136 138 103 56 305 183 93 148 352 63 9 12 121 40 20 192 146
353 351 348 345 343 341 341 340 338 335 329 325 323 320 318 318 322 327 327 316 42 94 119 177 233 357 260 213 165 150 158 138 139 126 105 125 101 115 45 87 192 182 92 13 349 216 206
351 348 346 345 343 342 341 338 331 327 324 323 318 317 315 318 321 328 333 29 26 26 222 195 192 256 288 309 144 133 149 142 95 105 136 193 114 185 192 195 172 134 110 204 287 205 189
347 345 346 346 344 339 336 330 327 325 323 319 316 315 316 321 321 325 140 156 140 169 306 225 231 260 269 248 88 106 137 131 133 155 134 80 210 204 186 189 167 138 104 288 261 253 184
346 344 344 338 338 338 329 327 324 322 319 317 314 314 321 324 320 115 180 241 68 131 160 288 193 191 228 147 187 189 140 154 144 136 180 144 213 171 193 163 143 118 160 211 223 55 50
342 339 341 338 340 334 329 328 325 323 322 317 316 320 326 327 355 329 251 291 316 182 54 272 220 261 157 196 115 160 179 145 136 160 152 161 161 151 157 197 136 158 212 208 276 54 138
338 338 339 340 339 336 334 327 325 326 321 318 319 321 325 321 289 329 304 330 300 84 318 146 170 107 100 135 161 42 115 52 152 145 108 229 153 154 164 205 154 215 160 182 216 132 104
336 337 341 341 339 336 332 328 328 323 317 320 323 318 321 126 142 244 307 308 68 37 244 11 124 133 96 22 52 72 74 48 123 94 67 190 190 143 199 211 173 122 81 39 47 79 45
337 337 341 339 338 336 330 328 328 322 321 325 324 317 275 160 262 321 311 38 50 101 320 335 24 100 106 98 64 73 43 29 93 95 125 40 9 336 33 124 90 91 79 23 33 35 200
336 340 341 337 339 335 332 329 326 325 326 329 326 324 189 216 269 343 45 53 57 317 306 322 3 61 73 355 26 26 62 41 9 64 87 132 330 359 336 39 165 162 156 150 162 170 205
337 342 343 337 337 338 331 329 327 328 333 333 322 318 347 263 209 116 68 61 232 307 310 332 24 66 16 8 100 80 59 47 15 350 128 132 71 317 60 25 49 170 76 169 107 19 88
337 341 342 342 335 339 333 329 329 332 335 338 25 13 303 333 145 68 77 98 346 335 315 22 92 57 79 357 68 74 25 330 338 24 171 147 91 20 304 25 23 93 94 71 10 125 146
339 340 338 340 336 340 334 329 330 333 335 333 45 41 266 352 45 44 69 71 20 350 32 44 35 63 88 48 54 66 359 51 349 342 58 70 85 331 35 14 303 9 16 30 108 104 151
336 342 345 341 338 340 335 330 332 336 335 44 78 41 321 10 52 15 48 354 7 339 5 25 83 61 54 32 44 80 100 7 333 314 48 357 104 65 71 290 34 67 68 101 118 212 55
336 344 346 345 340 341 336 333 337 341 355 64 75 275 331 36 81 13 351 11 59 14 15 11 23 32 36 47 88 50 54 342 4 43 76 133 31 89 11 333 1 52 341 92 105 79 27
335 346 348 346 342 343 337 337 342 347 56 78 73 36 337 38 49 103 55 10 20 29 56 56 11 40 49 32 15 86 37 348 353 19 43 81 70 127 164 142 149 71 359 24 95 88 154
338 343 349 348 344 346 342 340 349 354 75 75 31 94 178 353 0 36 60 16 14 10 12 28 38 33 33 60 35 44 12 351 357 357 28 77 99 70 65 86 91 143 161 342 352 165 145
340 342 348 349 344 348 345 345 351 5 89 75 101 111 28 55 346 33 13 0 34 350 29 8 84 32 45 85 75 126 41 30 334 337 42 7 115 107 75 63 118 201 225 205 249 299 212
336 346 346 343 348 350 349 350 355 7 36 83 344 36 98 315 16 67 330 34 20 48 25 56 46 85 46 56 173 230 128 91 56 38 45 58 119 89 161 359 90 32 235 169 126 59 80
329 353 346 342 353 351 350 354 358 12 52 109 182 107 82 352 68 120 115 94 66 38 111 22 35 66 360 52 101 68 55 76 57 18 64 116 89 83 163 1 189 252 247 228 155 125 145
325 352 349 341 350 355 350 356 359 11 31 72 313 102 113 126 188 87 116 108 50 11 68 88 18 308 353 52 64 57 355 48 22 43 21 47 115 85 124 148 296 307 346 149 174 243 207
324 339 349 341 345 353 355 359 360 6 23 88 10 102 101 118 257 160 126 122 149 121 17 74 84 23 70 77 61 88 150 211 337 12 58 57 72 108 131 126 189 221 220 332 192 269 55
325 330 342 335 341 349 354 3 5 6 14 92 5 6 90 108 251 138 169 172 128 102 150 297 338 37 51 69 77 108 184 230 103 213 306 10 12 135 155 164 288 132 279 282 151 246 32
311 318 331 326 339 343 349 357 5 10 9 71 238 346 104 129 270 183 162 132 107 110 143 221 43 353 49 66 107 199 118 186 90 248 202 185 135 182 122 110 260 226 178 186 176 270 303
302 308 320 318 331 335 342 350 0 10 10 50 48 350 349 119 228 284 234 199 180 180 134 52 177 169 170 99 122 110 129 157 170 215 233 222 178 187 180 212 206 163 190 221 176 190 259